Temp
67 72 79 79 79 79 79 79 79 78 78 78 78 78 77 78 78 78 78 79 79 78 78 78 77 77 77 77 76 76 75 75 74 74 73 72 73 75 76 76 75 74 76
71 74 78 79 79 79 79 79 78 77 77 78 78 78 78 78 78 79 78 78 78 78 77 77 77 77 77 76 76 76 76 75 74 74 72 71 72 74 76 76 75 73 75
73 76 77 78 79 79 78 78 77 77 77 77 78 78 79 79 79 78 78 78 78 77 76 75 75 75 76 75 76 76 76 75 74 73 72 67 66 73 77 75 75 75 75
76 75 77 78 78 79 78 78 77 77 77 77 77 78 79 78 79 79 78 78 77 76 75 75 74 74 74 75 75 75 76 75 73 73 68 68 70 76 77 76 75 76 76
76 77 77 78 78 78 78 78 77 77 77 77 77 77 76 77 77 77 78 79 76 75 75 74 74 74 74 74 75 75 75 75 72 71 66 65 66 75 76 76 75 75 76
73 77 76 77 78 77 77 77 77 77 77 77 76 76 76 77 76 77 77 77 75 75 74 74 74 74 74 74 74 75 75 74 72 65 64 67 68 76 77 76 75 75 75
71 74 76 77 77 77 77 77 77 77 77 77 76 77 77 76 76 76 77 76 75 75 75 75 75 75 75 74 74 74 74 73 67 63 63 65 66 75 77 77 76 75 75
73 75 76 76 77 77 77 77 77 77 77 77 77 77 76 75 76 76 76 75 75 75 75 75 74 74 75 74 74 74 73 71 68 63 64 64 69 75 77 77 76 76 75
75 74 73 73 74 75 75 75 76 77 76 76 76 76 74 73 74 75 75 75 75 75 75 74 74 74 74 74 74 74 72 71 65 64 66 64 69 75 77 77 77 76 76
75 74 71 71 72 72 72 74 74 75 75 74 74 73 71 71 72 73 73 73 74 74 73 73 74 74 73 73 73 72 71 70 65 64 65 65 72 75 77 77 77 77 76
74 72 71 71 71 71 71 72 73 73 73 72 71 70 69 66 67 69 70 71 72 73 73 73 73 73 72 70 70 70 69 65 64 64 65 69 72 75 77 77 77 77 76
70 72 73 72 72 71 77 70 69 71 69 68 68 67 66 65 66 70 68 70 72 72 72 72 73 72 70 65 64 67 65 64 64 66 66 70 74 77 77 77 76 76 76
71 71 73 72 72 71 70 68 67 67 67 67 67 67 66 69 67 66 65 65 65 66 65 67 66 66 65 65 67 68 69 66 65 66 69 71 74 77 77 77 76 76 76
70 72 73 73 71 71 70 68 68 67 67 66 68 69 67 65 65 65 65 65 66 68 67 68 69 71 71 70 69 69 66 65 65 65 65 68 72 75 77 77 77 76 76
70 70 71 71 70 69 68 68 67 66 68 68 68 70 68 66 65 66 65 66 69 70 70 70 70 70 66 66 66 65 65 66 65 65 64 66 69 72 75 77 77 77 76
69 70 71 71 69 69 67 66 66 66 70 67 67 68 69 67 65 66 69 69 68 66 65 64 62 61 61 61 63 63 64 63 63 64 67 68 68 70 73 75 77 77 77
66 68 69 69 69 68 67 67 66 68 68 67 68 71 70 70 66 68 65 61 61 61 61 61 61 60 59 61 60 62 61 61 61 61 64 63 64 65 68 74 75 76 77
66 66 67 73 69 67 67 66 66 66 65 64 66 69 68 65 63 61 60 58 59 59 59 58 57 56 55 55 55 56 57 59 59 61 62 61 62 64 67 69 71 72 73
64 65 65 66 68 67 66 69 68 65 65 63 64 65 62 63 62 59 58 57 58 57 56 56 55 53 52 53 57 56 56 55 57 62 58 61 61 61 62 65 65 66 68
64 64 64 66 67 67 66 66 64 63 60 61 60 61 60 60 60 57 56 56 56 55 54 53 52 53 51 50 58 56 54 54 54 55 56 61 59 59 60 60 57 62 66
63 63 64 66 66 66 63 61 58 56 56 57 58 59 58 58 58 55 54 54 53 52 51 52 51 50 50 50 47 52 50 53 53 58 59 56 59 61 60 61 62 62 62
61 61 62 62 63 64 63 59 58 58 55 56 56 56 57 56 56 57 53 52 51 51 50 49 48 47 48 48 45 44 42 46 51 56 52 57 53 58 58 60 58 59 59
58 59 61 62 63 63 63 62 58 56 55 53 53 53 54 55 55 54 52 51 50 49 47 47 47 46 44 46 47 44 39 38 46 48 53 50 55 50 55 54 57 59 57
56 59 60 61 62 62 61 58 57 54 52 53 53 52 52 54 53 53 52 50 49 48 46 46 50 46 45 44 46 51 45 42 39 39 45 50 48 53 51 53 55 54 57
56 55 56 58 58 58 57 56 54 53 52 52 52 51 51 50 51 52 51 49 48 47 46 46 45 44 44 43 42 43 42 42 41 39 38 41 48 49 48 50 48 53 52
54 54 55 56 55 56 56 56 54 52 51 50 49 48 48 48 48 49 50 48 47 46 45 45 45 44 43 42 42 42 41 41 42 41 40 41 42 46 47 48 49 48 52
MSLP
1011.90 1011.51 1011.57 1011.84 1012.02 1012.29 1012.44 1012.74 1013.03 1013.36 1013.52 1013.55 1013.60 1013.68 1013.72 1013.70 1013.94 1013.96 1013.90 1013.78 1013.98 1014.07 1014.17 1013.94 1013.95 1013.70 1013.65 1013.74 1013.83 1013.92 1014.00 1013.98 1014.14 1014.20 1014.25 1014.18 1013.97 1013.90 1013.77 1013.55 1013.76 1013.77 1013.58
1011.22 1011.36 1011.42 1011.72 1011.92 1012.15 1012.40 1012.72 1013.06 1013.35 1013.55 1013.59 1013.69 1013.80 1013.76 1013.79 1013.84 1013.87 1013.96 1013.92 1014.04 1014.07 1014.29 1014.23 1013.98 1013.94 1013.96 1013.95 1013.90 1013.92 1013.86 1014.00 1014.14 1014.10 1014.12 1014.04 1013.90 1013.76 1013.60 1013.57 1013.70 1013.66 1013.52
1011.04 1011.19 1011.34 1011.57 1011.83 1011.99 1012.36 1012.63 1012.91 1013.24 1013.43 1013.55 1013.61 1013.66 1013.71 1013.69 1013.73 1013.88 1014.00 1014.01 1014.10 1014.34 1014.36 1014.41 1014.36 1014.24 1014.17 1014.07 1013.97 1013.80 1013.72 1013.83 1013.91 1013.94 1013.87 1013.85 1013.83 1013.56 1013.35 1013.51 1013.55 1013.47 1013.40
1010.67 1010.99 1011.22 1011.39 1011.68 1011.88 1012.30 1012.54 1012.77 1013.10 1013.32 1013.39 1013.56 1013.52 1013.50 1013.60 1013.56 1013.61 1013.83 1014.07 1014.22 1014.39 1014.42 1014.40 1014.40 1014.26 1014.14 1014.01 1013.80 1013.85 1013.77 1013.73 1013.76 1013.80 1013.70 1013.70 1013.54 1013.02 1013.11 1013.28 1013.36 1013.29 1013.25
1010.64 1010.81 1011.05 1011.29 1011.45 1011.74 1012.26 1012.48 1012.67 1012.94 1013.15 1013.26 1013.41 1013.52 1013.59 1013.50 1013.45 1013.57 1013.70 1013.74 1014.12 1014.27 1014.34 1014.26 1014.27 1014.15 1014.01 1013.90 1013.80 1013.72 1013.63 1013.57 1013.64 1013.69 1013.54 1013.63 1013.28 1013.01 1012.98 1013.11 1013.08 1013.14 1013.07
1010.55 1010.62 1010.93 1011.15 1011.43 1011.76 1012.17 1012.37 1012.64 1012.86 1013.02 1013.21 1013.28 1013.36 1013.43 1013.51 1013.33 1013.29 1013.50 1013.60 1013.86 1014.01 1014.06 1014.00 1014.02 1013.93 1013.89 1013.82 1013.73 1013.61 1013.52 1013.47 1013.46 1013.59 1013.48 1013.39 1013.15 1012.85 1012.63 1012.82 1012.85 1012.89 1012.86
1010.40 1010.62 1010.90 1011.09 1011.45 1011.79 1012.07 1012.27 1012.49 1012.78 1012.85 1013.07 1013.22 1013.26 1013.35 1013.45 1013.30 1013.21 1013.40 1013.56 1013.62 1013.80 1013.85 1013.90 1013.86 1013.87 1013.80 1013.71 1013.58 1013.51 1013.37 1013.38 1013.37 1013.41 1013.32 1013.05 1012.93 1012.73 1012.47 1012.49 1012.51 1012.55 1012.52
1010.31 1010.47 1010.83 1011.09 1011.32 1011.81 1011.92 1012.12 1012.32 1012.62 1012.71 1012.95 1013.14 1013.27 1013.35 1013.51 1013.43 1013.29 1013.35 1013.63 1013.79 1013.77 1013.86 1013.85 1013.83 1013.81 1013.73 1013.62 1013.44 1013.32 1013.20 1013.24 1013.22 1013.26 1013.09 1012.97 1012.75 1012.49 1012.31 1012.24 1012.33 1012.35 1012.33
1010.05 1010.51 1010.82 1011.09 1011.35 1011.67 1011.80 1011.98 1012.18 1012.42 1012.65 1012.95 1013.06 1013.18 1013.35 1013.54 1013.47 1013.41 1013.43 1013.59 1013.73 1013.74 1013.80 1013.84 1013.80 1013.70 1013.62 1013.49 1013.32 1013.19 1013.14 1013.09 1013.09 1013.09 1012.85 1012.67 1012.55 1012.25 1012.02 1011.80 1011.84 1011.90 1011.96
1010.10 1010.35 1010.87 1010.94 1011.31 1011.52 1011.69 1011.83 1012.07 1012.30 1012.64 1013.00 1013.03 1013.20 1013.28 1013.45 1013.47 1013.44 1013.50 1013.64 1013.72 1013.77 1013.74 1013.69 1013.63 1013.50 1013.38 1013.28 1013.12 1012.98 1012.90 1012.89 1012.86 1012.73 1012.62 1012.52 1012.17 1011.90 1011.63 1011.48 1011.40 1011.42 1011.50
1009.85 1010.17 1010.54 1010.91 1011.09 1011.15 1011.48 1011.73 1012.00 1012.20 1012.54 1012.85 1012.97 1013.05 1013.21 1013.30 1013.41 1013.43 1013.48 1013.57 1013.56 1013.55 1013.49 1013.44 1013.33 1013.18 1013.06 1012.93 1012.79 1012.62 1012.54 1012.49 1012.40 1012.39 1012.31 1011.97 1011.68 1011.41 1011.06 1010.97 1010.94 1010.95 1010.96
1009.59 1009.70 1010.13 1010.59 1010.87 1010.77 1011.04 1011.56 1011.84 1012.19 1012.51 1012.75 1012.91 1012.99 1013.09 1013.24 1013.25 1013.29 1013.24 1013.27 1013.24 1013.20 1013.13 1013.03 1012.94 1012.77 1012.67 1012.62 1012.53 1012.29 1012.20 1012.02 1012.02 1011.86 1011.71 1011.36 1011.13 1010.76 1010.58 1010.47 1010.44 1010.42 1010.40
1008.90 1009.32 1009.56 1010.06 1010.34 1010.70 1011.06 1011.33 1011.69 1012.09 1012.35 1012.63 1012.73 1012.87 1012.91 1012.96 1013.09 1013.13 1013.20 1013.17 1013.11 1012.98 1012.98 1012.84 1012.78 1012.63 1012.49 1012.44 1012.22 1012.04 1011.75 1011.70 1011.62 1011.49 1011.17 1010.77 1010.47 1010.29 1010.12 1009.91 1009.83 1009.71 1009.75
1008.70 1008.89 1009.08 1009.61 1010.20 1010.51 1010.85 1011.25 1011.50 1011.86 1012.17 1012.53 1012.53 1012.57 1012.79 1012.92 1013.07 1013.06 1013.12 1012.95 1012.91 1012.76 1012.79 1012.62 1012.39 1012.11 1011.97 1011.84 1011.83 1011.64 1011.49 1011.33 1011.21 1011.04 1010.78 1010.38 1010.13 1009.83 1009.60 1009.36 1009.26 1009.13 1009.05
1008.26 1008.59 1008.91 1009.37 1010.05 1010.54 1010.90 1011.10 1011.63 1011.86 1011.97 1012.14 1012.33 1012.39 1012.66 1012.91 1013.16 1013.02 1012.99 1012.89 1012.68 1012.49 1012.35 1012.32 1012.22 1012.24 1012.17 1011.98 1011.85 1011.60 1011.42 1011.02 1010.68 1010.57 1010.43 1010.07 1009.74 1009.49 1009.17 1008.93 1008.72 1008.45 1008.37
1008.00 1008.28 1008.66 1009.28 1009.80 1010.33 1010.91 1011.34 1011.84 1011.82 1011.92 1012.15 1012.41 1012.52 1012.54 1012.79 1013.00 1013.21 1013.19 1013.17 1012.95 1012.82 1012.77 1012.83 1012.87 1012.69 1012.49 1012.31 1012.09 1011.70 1011.41 1011.11 1010.82 1010.54 1010.20 1009.87 1009.42 1009.05 1008.70 1008.31 1007.90 1007.72 1007.68
1008.26 1008.45 1008.75 1009.12 1009.59 1010.16 1010.88 1011.45 1011.88 1011.85 1012.01 1012.25 1012.48 1012.57 1012.76 1012.82 1013.01 1013.15 1013.49 1013.62 1013.59 1013.42 1013.15 1013.00 1012.96 1012.86 1012.83 1012.59 1012.32 1011.91 1011.62 1011.17 1010.84 1010.51 1010.18 1009.82 1009.41 1009.02 1008.67 1008.16 1007.71 1007.18 1007.07
1008.41 1008.77 1008.87 1009.07 1009.59 1010.24 1010.90 1011.40 1011.81 1012.01 1012.25 1012.62 1012.82 1012.93 1013.17 1013.36 1013.49 1013.70 1013.88 1014.11 1013.96 1013.70 1013.56 1013.57 1013.61 1013.42 1013.27 1013.05 1012.68 1012.15 1011.76 1011.36 1011.04 1010.59 1010.24 1009.92 1009.47 1009.25 1008.92 1008.52 1008.23 1007.66 1007.43
1008.61 1008.83 1009.18 1009.22 1009.77 1010.42 1011.01 1011.54 1011.98 1012.44 1012.70 1013.06 1013.33 1013.45 1013.72 1013.79 1013.94 1014.12 1014.50 1014.48 1014.24 1014.25 1014.21 1014.12 1013.98 1013.88 1013.80 1013.41 1012.75 1012.27 1011.72 1011.27 1011.00 1010.70 1010.49 1010.00 1009.72 1009.52 1009.23 1008.71 1008.27 1008.06 1007.80
1008.79 1008.93 1009.22 1009.48 1010.00 1010.67 1011.34 1011.93 1012.54 1012.94 1013.44 1013.55 1013.74 1014.00 1014.02 1014.21 1014.32 1014.54 1014.72 1014.78 1014.67 1014.75 1014.68 1014.53 1014.41 1014.00 1013.95 1013.70 1012.98 1012.55 1011.75 1011.24 1011.05 1010.94 1010.61 1010.10 1009.89 1009.60 1009.22 1008.87 1008.69 1008.27 1007.85
1009.10 1009.29 1009.51 1009.82 1010.34 1010.89 1011.65 1012.36 1012.95 1013.60 1014.01 1014.18 1014.31 1014.39 1014.49 1014.62 1014.77 1014.94 1015.10 1015.14 1015.04 1015.11 1015.13 1014.97 1014.70 1014.56 1014.18 1013.82 1013.42 1012.71 1011.90 1011.26 1011.32 1010.89 1010.75 1010.36 1009.99 1009.65 1009.25 1008.95 1008.59 1008.39 1008.13
1009.60 1009.68 1009.91 1010.24 1010.68 1011.19 1011.77 1012.41 1012.91 1013.62 1014.23 1014.52 1014.73 1014.87 1014.92 1015.00 1015.05 1015.13 1015.40 1015.44 1015.41 1015.37 1015.36 1015.32 1015.21 1015.16 1014.78 1014.47 1014.56 1013.58 1013.04 1012.16 1011.40 1011.80 1011.28 1010.80 1010.51 1010.21 1009.79 1009.44 1009.18 1008.75 1008.50
1010.14 1010.19 1010.33 1010.67 1010.99 1011.39 1011.89 1012.54 1013.24 1013.87 1014.46 1014.93 1015.25 1015.36 1015.43 1015.29 1015.40 1015.50 1015.62 1015.69 1015.72 1015.70 1015.81 1015.69 1015.57 1015.57 1015.49 1014.86 1014.84 1015.01 1014.52 1014.06 1013.07 1011.67 1011.51 1011.19 1010.90 1010.56 1010.20 1009.72 1009.33 1008.88 1008.58
1010.47 1010.53 1010.80 1011.02 1011.26 1011.58 1012.05 1012.73 1013.41 1013.95 1014.69 1015.05 1015.33 1015.56 1015.74 1015.66 1015.78 1015.85 1015.94 1015.98 1016.07 1016.09 1016.04 1015.95 1015.78 1015.73 1015.69 1015.69 1015.13 1014.92 1015.17 1015.03 1014.58 1012.54 1011.82 1011.74 1011.14 1010.71 1010.30 1009.81 1009.50 1009.14 1008.66
1010.60 1010.98 1011.33 1011.44 1011.65 1011.91 1012.35 1012.91 1013.65 1014.35 1014.79 1015.08 1015.50 1015.84 1016.11 1016.25 1016.19 1016.22 1016.32 1016.34 1016.31 1016.28 1016.21 1016.08 1015.92 1015.89 1015.88 1015.97 1015.87 1015.41 1015.06 1014.66 1014.45 1014.04 1012.03 1011.78 1011.49 1010.91 1010.38 1009.85 1009.53 1009.21 1008.80
1010.95 1011.35 1011.67 1011.87 1012.34 1012.45 1012.83 1013.35 1013.96 1014.57 1015.12 1015.56 1015.99 1016.34 1016.56 1016.66 1016.69 1016.62 1016.53 1016.57 1016.47 1016.43 1016.33 1016.22 1016.10 1015.99 1015.92 1015.86 1015.77 1015.57 1015.42 1015.04 1014.47 1013.91 1012.76 1011.63 1011.06 1010.60 1010.21 1009.89 1009.54 1009.15 1008.64
Wind_Speed
3 7 13 13 13 13 11 13 11 10 8 7 8 9 9 9 7 5 5 8 8 8 8 8 10 11 11 8 6 3 6 8 6 4 5 6 5 5 6 7 2 4 4
11 8 14 13 14 13 13 13 12 10 8 8 6 5 5 5 4 5 5 6 7 6 6 8 10 8 8 7 2 1 2 5 3 4 6 7 8 6 6 4 1 4 3
13 10 10 14 14 15 13 14 12 10 8 7 5 5 4 3 4 7 5 4 7 6 6 5 5 6 5 5 4 6 6 2 2 3 6 4 6 9 9 5 4 4 4
13 10 9 14 15 15 15 14 12 10 8 7 3 5 1 3 1 2 7 5 4 4 4 4 5 5 4 6 6 6 5 3 2 4 4 4 6 7 10 7 6 5 6
12 11 10 15 14 15 15 14 12 11 9 7 5 1 2 3 2 3 6 4 6 4 2 2 3 4 3 3 4 5 5 4 3 5 4 6 5 3 8 6 5 7 7
8 11 13 15 14 15 13 13 12 11 9 6 6 3 1 4 4 5 7 7 10 6 3 1 3 4 5 5 6 6 6 6 5 5 5 6 5 7 9 11 8 9 10
7 10 10 14 16 14 13 12 11 10 9 8 6 5 4 6 9 3 6 8 10 8 5 4 4 5 7 7 8 8 7 7 4 5 6 6 5 11 12 11 12 12 12
11 9 9 13 14 12 12 11 10 11 10 9 6 5 4 4 7 3 7 6 6 5 4 6 6 7 8 9 8 9 8 8 5 6 6 5 10 14 15 14 14 14 15
11 10 7 7 8 11 10 9 8 8 7 8 7 5 5 3 3 4 6 5 4 4 5 6 9 10 10 10 10 10 8 9 6 4 7 4 11 16 17 17 16 16 17
9 9 9 7 6 6 6 9 9 8 7 8 7 6 5 5 5 5 5 5 4 5 8 9 9 10 11 11 12 11 11 10 6 5 5 6 16 17 17 17 17 17 17
5 9 8 9 8 7 7 6 9 8 9 9 7 6 4 2 4 5 4 5 5 6 8 9 10 11 10 10 11 13 12 4 6 4 5 13 18 17 17 17 17 18 19
8 7 9 10 9 8 6 7 6 5 4 5 5 5 3 2 3 5 5 7 7 7 8 10 11 12 9 4 4 8 4 5 5 6 5 16 19 19 20 18 18 19 20
11 6 8 8 8 7 5 5 3 3 3 3 6 5 5 3 0 1 2 2 3 5 3 5 5 4 5 4 5 5 6 5 4 5 8 16 19 21 22 20 20 19 20
9 11 8 8 7 6 5 4 3 4 3 3 5 6 3 1 2 2 2 2 2 2 3 3 3 4 4 5 5 5 6 4 3 4 5 14 18 21 22 22 22 21 22
8 8 8 8 7 6 6 4 3 2 3 4 3 3 3 3 1 1 2 2 2 1 2 3 4 4 5 6 6 6 7 6 6 3 3 11 13 15 19 21 22 23 23
7 9 9 8 8 8 5 5 3 3 3 4 3 3 4 3 2 2 3 4 4 4 5 5 4 5 5 5 7 7 7 6 6 6 6 7 13 15 20 23 24 23 23
4 5 7 8 9 8 7 6 4 4 4 4 4 6 6 4 5 5 6 5 5 4 6 5 7 6 6 6 7 7 5 7 6 7 7 5 5 10 14 19 20 19 18
7 7 5 7 10 9 8 5 4 4 4 4 5 7 9 8 7 6 5 5 5 5 5 5 5 5 5 5 4 5 5 5 6 7 6 5 5 5 8 14 15 17 19
7 6 6 7 11 9 8 7 9 8 6 5 5 7 7 8 8 7 5 5 6 5 5 4 4 3 3 5 6 5 6 5 5 5 6 7 7 6 5 9 13 12 16
6 6 7 7 13 12 10 10 8 8 5 5 6 6 7 6 8 6 5 6 5 4 5 4 4 4 2 4 6 6 6 5 4 5 5 6 5 5 6 6 4 7 18
6 7 7 12 11 10 8 7 4 5 4 5 5 7 7 6 7 6 4 5 5 5 4 5 3 4 4 6 3 8 4 5 5 12 10 7 10 11 9 12 10 9 8
6 6 7 7 9 8 6 4 5 5 4 4 4 6 6 7 6 6 5 5 6 4 6 6 5 4 3 5 3 3 5 6 8 13 6 8 7 10 10 12 10 10 10
8 8 9 9 11 10 11 8 5 5 4 3 3 4 4 6 6 6 6 5 5 4 4 3 5 6 4 4 7 2 5 4 13 3 12 5 15 5 9 7 10 12 9
6 7 8 8 11 9 9 8 8 5 5 2 3 3 4 6 7 6 6 6 5 4 5 4 5 3 4 6 5 3 2 3 6 8 4 13 5 12 8 7 10 7 13
8 7 7 8 8 7 8 8 6 6 4 3 4 6 6 5 6 6 6 5 5 4 4 6 6 6 3 2 3 4 3 3 4 5 12 6 9 7 6 6 5 11 8
7 8 7 10 7 8 8 8 8 8 7 5 4 5 4 3 3 5 5 5 5 5 4 4 4 6 5 4 3 3 3 4 8 7 13 14 13 9 5 6 7 6 9
Wind_Direction
180 155 149 148 141 148 151 135 124 119 109 98 104 91 123 110 101 98 80 72 58 53 20 359 12 32 51 69 101 115 104 61 44 347 321 300 280 259 262 146 75 344 220
145 152 154 156 152 155 153 137 128 124 117 104 108 112 114 105 92 98 87 69 72 71 19 358 354 12 23 32 17 222 84 79 3 343 305 285 275 253 247 141 253 298 309
142 151 153 157 155 153 143 137 133 136 130 124 129 141 141 196 116 105 106 113 65 48 22 14 360 336 356 360 12 14 11 14 11 319 288 280 258 245 220 185 228 243 286
145 155 161 165 151 156 151 143 142 145 143 140 162 124 154 208 172 153 127 92 108 77 42 9 2 358 341 341 358 346 336 14 174 265 279 275 273 207 213 214 235 248 250
150 160 159 149 157 159 152 149 153 158 156 150 152 194 356 5 307 225 172 130 125 111 89 16 341 337 338 320 298 280 280 304 209 264 273 280 239 201 217 239 245 262 260
146 155 159 156 155 145 152 154 162 167 162 158 160 161 78 23 326 273 194 163 147 161 174 218 264 276 282 286 284 279 280 267 232 259 272 261 247 233 229 233 234 245 249
133 145 150 153 145 152 159 162 168 171 166 169 167 154 130 53 28 164 162 162 159 188 205 242 300 299 291 290 274 273 271 264 260 253 261 272 261 260 254 249 249 249 250
142 144 149 148 148 161 165 168 174 181 177 164 159 157 146 100 41 105 166 173 190 227 246 265 284 302 302 295 289 279 273 253 263 274 274 278 275 275 267 263 261 263 260
145 145 145 149 155 162 164 178 177 183 169 158 142 133 135 150 113 74 152 192 226 251 289 298 298 302 303 299 294 291 281 263 254 257 273 273 273 277 273 270 269 266 265
148 151 159 158 165 169 175 180 176 173 155 152 149 152 165 200 223 218 195 218 240 285 299 301 298 297 295 293 292 289 280 271 258 260 271 263 272 275 278 279 273 271 268
174 159 168 169 178 177 186 180 174 174 168 169 173 189 208 219 246 239 222 195 228 261 282 287 287 283 278 274 275 274 273 240 242 249 253 257 267 270 273 281 280 279 278
189 187 171 173 182 184 182 162 168 173 173 181 200 207 209 233 229 162 190 219 240 254 260 268 272 270 272 256 263 272 256 242 235 243 246 253 263 272 280 277 272 271 273
194 179 177 166 173 159 150 154 165 172 182 193 207 218 204 175 95 233 268 263 240 259 255 271 287 277 266 254 258 250 253 241 243 248 253 250 259 270 276 276 272 268 264
179 186 174 161 155 161 142 151 155 160 174 177 192 160 146 113 218 265 268 258 240 239 256 257 267 280 268 253 263 281 280 260 239 249 260 264 264 268 275 280 280 278 272
168 171 169 150 148 142 137 130 101 132 148 143 127 128 114 86 50 5 15 46 47 2 309 329 351 351 346 345 327 326 308 297 285 267 265 259 264 273 281 283 282 279 278
167 161 163 157 151 130 124 134 139 93 120 105 102 121 112 97 58 50 60 20 10 13 17 23 17 0 353 353 338 327 316 319 310 305 301 299 282 281 282 283 280 277 281
101 130 166 155 143 128 131 136 127 120 92 97 87 71 76 76 53 62 57 29 13 11 29 22 11 9 1 349 336 334 331 321 319 329 315 297 303 307 304 318 323 318 299
106 112 113 138 137 127 135 131 134 112 86 79 73 77 60 56 55 59 53 34 9 22 25 26 17 358 348 350 326 315 322 317 324 325 331 333 328 344 335 337 334 341 351
135 133 132 123 130 121 105 94 88 87 79 71 76 69 61 59 55 62 48 24 22 27 25 19 5 11 348 341 331 328 315 312 333 349 336 340 337 334 337 324 337 353 344
130 125 130 117 117 108 104 99 92 85 72 76 73 69 61 58 55 58 47 34 29 35 19 10 11 345 348 336 326 330 305 309 7 344 318 337 322 340 335 336 345 340 340
114 115 115 122 121 117 114 114 100 96 86 73 74 75 69 67 62 59 53 39 29 47 26 15 344 350 334 349 359 334 315 321 18 2 335 329 342 346 345 347 344 340 334
119 109 104 107 110 115 117 107 112 118 93 107 92 78 76 71 61 68 61 45 41 42 25 16 21 346 319 4 351 324 340 323 6 323 333 323 348 335 344 328 331 327 333
102 108 107 113 115 117 120 117 99 83 69 75 73 82 75 74 63 60 52 52 45 49 32 6 16 20 333 327 16 50 347 327 324 320 314 345 328 319 326 322 314 327 324
119 107 109 116 121 123 128 124 134 133 134 149 139 123 93 74 61 53 51 50 48 37 30 0 13 13 14 344 342 26 216 239 309 318 339 317 321 324 307 315 318 325 329
115 111 108 105 103 114 114 122 120 115 108 106 93 102 91 69 61 54 48 46 42 32 19 22 8 5 0 336 321 320 314 307 264 278 304 308 299 304 294 302 309 322 315
113 107 103 100 92 93 101 106 115 119 113 96 86 91 96 93 56 47 42 34 31 27 15 5 360 356 335 328 309 302 283 308 311 305 304 307 302 302 291 300 302 297 297